Location: Basses Si�yes
(44.0835°N, 6.2037°E)
Time: 20:39:19
(UTC+00:00)

SL-08 RB Rocket - Pass Details

Date: 27 February 2020
Orbit: 648 x 684 km, 97.8° (Epoch: 03 April)

Event Time Altitude Azimuth Distance (km) Brightness Sun altitude
Exits shadow 19:42:34 74° 307° (NW) 683 3.7 -26.2°
Drops below altitude 10° 19:46:45 10° 345° (NNW) 2,061 6.6 -26.9°
Sets 19:48:58 0° 347° (NNW) 2,975 7.4 -27.3°
